Погода в Терновке

Россия / Воронежская область     51°41′07″N   41°35′31″E
темп.,
°C
ветер,
м/с
пор.,
м/с
влажн.,
%
обл.,
%
осадки,
мм/ч
давл.,
гПа
погр.,
м
13 июня, вс
вс1300:00+15ю48935 0.0 1009165
03:00+14ю389652 0.0 1009167
06:00+15ююз489525 0.0 1009278
09:00+19юз468280 0.1 1010709
12:00+22юз566871 0.8 10101357
15:00+22ююз357543 1.9 1010762
18:00+22ююз23747 1.2 1010549
21:00+18ююв33882 1.3 101127
14 июня, пн
пн1400:00+16ююв22905 0.0 101219
03:00+15юв119117 0.0 101211
06:00+17юв12890 0.0 101392
09:00+22в22766 0.4 1014554
12:00+24вюв2363100 0.8 10141256
15:00+25юв3361100 1.5 10141368
18:00+23вюв3476100 0.6 1014203
21:00+18вюв3492100 0.9 101466
15 июня, вт
вт1500:00+16юв229586 0.0 101422
03:00+15в239695 0.0 101444
06:00+17вюв249294 0.0 1014148
09:00+20св347733 0.0 1013737
12:00+18ссв578481 0.8 1012596
15:00+17с4894100 0.9 1012377
18:00+16с3693100 0.0 1011315
21:00+16ссз349451 0.0 1010102
16 июня, ср
ср1600:00+15сз239415 0.0 101043
03:00+15зсз229149 0.0 101028
06:00+17зсз378799 0.0 1010204
09:00+18зсз377887 0.0 1010285
12:00+25зсз456010 0.0 10101250
15:00+25зсз456119 1.7 10091511
18:00+23ссз477714 0.5 1010454
21:00+19с369181 1.3 1012107
17 июня, чт
чт1700:00+17с3695100 0.0 1012120
03:00+16с3996100 0.0 1014220
06:00+17ссв5995100 0.0 1015430
09:00+19св5786100 0.0 1016695
12:00+21св677691 0.0 1017970
15:00+21св587691 0.0 1017951
18:00+21св7107778 0.0 1017680
21:00+18св513860 0.0 1018467